sat.trackr.live / text

‹ back to catalog

STARLINK-30081

NORAD 57515 · 2023-113W

PAYLOAD ACTIVE UNKNOWN

§ Identity

Operator
Country
US
Launch date
2023-08-07
Launch site
AFETR
Launch vehicle
Mass (kg)
RCS (m²)

Purposes: comms

External: N2YO · Heavens-Above · Gunter

§ Orbital elements

Epoch: 2026-09-20T05:52:47.437536Z

Period
94.27 min
Inclination
43.0036°
Eccentricity
0.0000927
Mean motion
15.27577427 rev/d
Perigee alt
482.4 km
Apogee alt
483.7 km
Semi-major
6,861.2 km
B*
-1.7434e-5
RAAN
357.0147°
Arg perigee
270.8914°
Mean anomaly
89.1832°
Rev number
17,343

§ Raw data

STARLINK-300811 57515U 23113W   26263.24499349 -.00000742  00000+0 -17434-4 0  99932 57515  43.0036 357.0147 0000927 270.8914  89.1832 15.27577427173433

JSON: /api/v1/satellites/57515 · /tle

For live sub-satellite position, see the globe view (requires WebGL).

§ Visibility from observer

Set your observer location to see the next 7 days of passes ≥ 10°. The values pass through the URL so the page stays shareable.

No JS? Fill the form by hand. The geolocation button needs JavaScript.